Temperature
27 28 28 29 30 30 30 29 29 30 32 31 31 30 30 31 30 30 29 29 28 27 25 24 23 22 21 21 21 20 20 19 19 19 19 18 18 18 18 18 18 17 17 17
28 28 29 30 31 30 30 29 29 30 31 31 30 30 31 31 31 30 29 29 28 27 25 24 23 22 21 21 20 20 20 19 19 19 19 18 18 18 18 18 17 17 17 17
28 29 30 30 30 29 29 29 29 29 31 31 30 29 30 30 30 29 29 28 28 27 25 24 23 22 21 20 20 20 19 19 19 19 18 18 18 18 17 17 17 17 17 17
28 30 30 30 29 29 29 30 30 29 29 29 29 28 29 30 29 29 29 28 28 27 25 24 23 22 21 20 20 19 19 19 19 18 18 18 17 17 17 17 17 17 17 17
28 29 29 29 29 30 29 30 30 29 29 28 29 28 28 29 28 28 28 28 27 27 26 25 23 22 21 21 20 19 19 19 18 18 18 17 17 17 17 17 17 17 17 17
29 30 30 30 30 30 30 30 29 29 28 27 28 28 27 28 27 28 28 27 27 26 25 25 23 22 21 21 20 19 18 18 18 18 17 17 17 17 17 17 17 17 16 16
28 29 30 30 29 29 29 27 26 26 26 27 28 28 27 28 28 28 28 27 26 26 25 24 23 22 21 20 19 19 18 18 17 17 17 17 17 17 17 16 16 16 16 16
27 27 29 30 29 28 28 27 26 25 26 27 28 27 28 28 28 27 27 27 26 25 24 24 22 22 21 20 19 19 18 18 17 17 17 17 16 16 16 16 16 16 16 16
27 27 30 30 30 29 27 27 28 27 26 26 26 27 27 28 28 27 27 26 25 25 24 23 22 21 20 20 19 18 18 17 17 17 17 17 16 16 16 16 16 15 15 15
27 27 28 30 29 29 29 28 27 26 25 25 26 26 26 26 26 26 26 25 24 24 23 22 21 20 20 19 19 18 18 17 17 17 17 16 16 16 16 15 15 15 15 15
27 26 27 28 28 28 28 27 27 27 26 25 25 25 27 26 26 26 26 25 24 23 22 22 21 20 19 19 18 18 17 17 17 17 16 16 16 16 15 15 15 15 15 15
27 26 26 27 28 29 28 28 27 25 25 26 25 25 27 26 26 26 26 25 24 23 22 21 20 20 19 18 18 17 17 17 17 16 16 16 16 16 15 15 15 15 15 15
26 25 24 25 26 27 27 27 27 27 26 25 25 25 26 26 26 25 25 24 23 22 21 21 20 19 19 18 18 17 17 17 16 16 16 16 15 15 15 15 15 14 14 14
25 24 24 23 24 25 25 26 27 26 25 25 25 25 25 25 25 24 23 23 22 22 21 20 19 19 18 18 17 17 17 17 16 16 16 15 15 15 15 15 15 14 14 14
25 24 24 24 25 25 25 26 26 26 26 25 25 25 24 24 24 24 23 23 22 21 20 19 19 18 18 17 17 17 16 16 16 16 16 15 15 15 15 15 14 14 14 14
24 23 23 24 25 25 25 25 26 26 26 25 25 24 25 24 24 23 23 22 21 21 20 19 18 18 17 17 16 16 16 16 16 16 15 15 15 15 14 14 14 14 14 14
23 22 22 23 24 24 24 25 25 25 25 25 24 24 24 24 23 23 22 21 20 20 19 18 18 17 17 16 16 16 16 16 15 15 15 15 15 14 14 14 14 14 14 14
22 21 21 22 22 21 24 25 25 24 24 25 24 24 24 23 22 21 21 20 20 19 18 17 17 16 16 16 16 15 15 15 15 15 15 15 14 14 14 14 14 13 13 13
22 21 21 21 21 22 23 24 24 23 23 24 23 23 23 22 22 20 20 19 19 18 17 17 16 16 16 15 15 15 15 15 15 15 15 15 14 14 13 13 13 13 13 13
23 21 21 21 20 20 22 23 24 23 21 22 22 22 22 21 20 20 19 18 18 17 17 16 16 15 15 15 15 14 14 14 14 14 14 14 14 13 13 13 13 13 13 13
21 21 20 20 20 21 22 23 23 21 20 21 21 21 20 20 19 18 18 17 17 16 16 15 15 15 14 14 14 14 14 14 14 14 14 14 13 13 13 13 13 13 13 13
20 20 20 20 19 20 22 22 21 19 20 20 20 20 19 18 18 17 17 16 16 15 15 15 15 14 14 14 14 14 13 14 14 13 13 13 13 13 13 13 13 13 12 12
20 20 20 19 19 20 20 20 19 19 19 19 19 19 18 18 17 17 16 16 15 15 14 14 14 14 13 13 13 13 13 13 13 13 13 13 13 13 13 13 13 12 12 12
20 20 20 19 19 19 19 18 19 19 18 18 18 18 18 17 17 16 15 15 14 14 14 13 13 13 13 13 13 13 13 13 13 12 12 12 12 13 13 13 12 12 12 12
19 19 19 18 18 19 19 18 18 18 18 17 17 17 17 16 16 16 15 14 14 13 13 13 13 12 12 12 12 12 13 12 12 12 12 12 12 12 12 13 12 12 13 13
18 18 18 17 18 18 18 17 17 17 17 17 17 16 16 16 15 15 14 14 13 13 13 12 12 12 12 12 12 12 12 12 12 12 12 12 12 12 12 12 12 12 12 12
Wind_Speed
13 14 15 16 18 15 13 11 10 12 9 9 10 10 10 10 10 9 9 9 9 9 8 9 8 8 7 5 5 5 5 5 4 3 3 3 2 2 1 2 3 2 1 0
14 18 18 16 14 13 15 14 13 11 8 8 10 10 10 11 11 10 9 8 8 8 9 10 10 9 8 6 5 6 4 4 3 2 2 2 2 2 2 1 2 2 1 1
17 14 15 14 13 12 15 14 12 9 9 9 9 11 12 11 9 8 7 8 8 9 10 10 10 10 10 8 6 5 5 4 3 2 2 1 1 1 1 2 2 2 1 1
16 15 12 13 13 13 14 13 11 11 11 10 11 11 10 10 11 11 10 8 8 8 10 10 10 10 10 10 8 6 5 4 3 2 2 2 2 1 1 1 2 1 1 0
15 14 13 14 13 13 13 11 10 12 12 13 13 12 9 9 11 12 11 8 7 7 8 9 9 9 9 9 9 8 7 5 4 3 2 2 1 1 1 1 1 1 1 1
16 14 13 12 12 11 10 10 11 12 12 15 14 13 8 6 8 10 9 8 7 6 7 7 8 8 7 7 8 8 6 5 4 3 2 1 1 2 1 1 1 1 1 1
16 16 14 12 12 11 11 10 9 10 12 13 11 10 6 6 5 6 8 7 8 7 7 7 8 8 8 8 8 9 7 6 5 4 2 2 1 2 1 0 1 0 1 1
14 14 15 13 14 12 12 13 11 10 10 10 9 9 6 6 7 7 6 7 7 7 6 7 7 7 7 8 8 8 7 6 5 4 3 3 2 1 1 1 1 1 1 1
10 12 11 13 13 14 13 14 14 13 14 12 8 6 4 5 6 6 6 7 7 6 6 7 7 5 6 7 7 7 8 6 5 5 4 3 2 1 1 1 0 1 1 1
11 10 10 11 10 13 14 11 9 10 10 12 10 9 6 6 5 5 6 6 6 6 6 7 8 7 5 6 6 6 7 6 5 4 3 4 3 2 1 1 1 1 1 1
12 10 11 12 13 13 12 14 12 9 10 10 11 5 1 5 4 5 7 7 7 7 7 7 7 7 7 6 6 5 5 6 5 5 4 3 3 2 2 1 1 1 1 1
9 8 11 13 12 11 12 13 13 10 10 11 11 5 1 3 4 5 5 6 7 7 7 7 6 6 6 5 5 4 4 5 5 4 4 4 3 3 2 2 1 1 1 0
6 6 9 10 9 9 11 12 12 11 10 11 12 5 3 2 2 3 4 5 6 6 6 6 5 4 4 4 4 4 4 4 4 4 4 4 3 3 3 2 2 2 1 1
4 7 10 12 9 9 12 13 12 12 11 12 12 6 3 3 2 2 3 5 6 6 6 5 4 3 2 3 3 3 3 3 3 3 4 4 3 3 3 3 2 2 1 1
4 9 12 13 14 13 13 13 13 14 12 12 9 6 3 3 2 2 3 4 4 5 5 5 4 3 2 2 2 2 2 2 2 2 4 4 4 4 3 3 2 1 1 1
4 7 11 13 14 13 13 12 12 12 11 11 10 5 2 3 2 1 2 3 3 3 4 4 4 3 3 2 2 2 2 2 2 2 3 3 3 3 3 3 2 1 1 1
6 6 9 11 12 12 13 10 9 9 8 9 8 4 1 1 1 0 1 2 3 3 3 3 3 3 2 2 1 1 2 2 2 2 3 4 4 4 3 3 2 2 1 1
7 6 7 9 10 13 7 4 5 6 6 6 4 2 1 1 2 3 2 1 2 2 2 2 2 2 2 3 2 1 1 1 1 2 2 3 3 3 3 3 2 1 1 0
8 8 7 8 11 10 7 5 5 5 6 4 2 2 2 3 2 2 3 3 2 2 2 1 1 0 1 2 2 2 1 2 2 2 2 2 2 3 3 2 2 2 1 1
10 8 9 9 10 10 5 3 4 4 5 2 2 2 2 3 3 1 3 2 2 2 2 1 1 1 2 2 2 2 2 2 2 2 1 1 1 2 2 2 2 2 2 2
11 11 11 11 11 8 2 3 3 4 1 3 3 3 2 2 2 2 2 2 2 2 2 1 1 1 1 2 2 2 2 2 2 2 1 1 1 2 3 2 2 2 3 2
8 9 10 9 10 7 3 4 2 1 2 2 3 2 2 2 1 2 3 3 2 2 1 1 1 1 2 2 2 3 2 2 2 2 1 1 2 3 3 3 3 3 3 4
5 4 3 3 3 1 4 4 3 3 3 3 3 3 2 1 1 2 2 1 1 1 1 0 1 1 2 2 2 2 2 2 2 2 1 2 2 2 3 3 4 3 3 4
4 2 3 1 2 2 1 2 2 1 1 2 3 3 3 1 1 2 2 2 1 1 1 0 0 1 1 1 1 1 2 2 2 2 2 2 3 3 2 2 3 3 3 3
4 3 3 2 2 1 1 1 1 3 2 2 3 3 3 2 1 2 2 2 1 1 1 1 1 2 2 1 1 2 2 1 2 2 2 3 3 2 2 2 1 1 1 1
3 3 3 3 2 2 0 1 1 1 1 1 1 2 2 2 2 2 2 2 1 1 1 1 2 2 2 2 2 2 2 2 3 3 3 3 3 3 3 2 1 1 1 1
Wind_Direction
213 224 226 224 227 241 252 261 258 251 228 218 229 226 227 214 203 207 201 195 189 181 165 143 143 143 138 133 138 137 144 139 157 177 192 199 195 185 166 147 117 120 122 172
218 226 234 238 238 244 255 250 251 250 233 231 240 237 233 223 208 206 205 197 194 175 155 150 152 155 147 144 150 140 145 147 170 176 192 189 184 183 168 122 117 132 130 101
227 227 226 236 241 242 251 253 254 256 256 242 244 248 238 229 214 203 205 194 193 176 161 162 161 158 152 154 159 159 147 143 157 154 187 192 152 180 147 141 139 130 93 90
233 239 235 230 236 240 247 248 257 259 257 257 244 251 233 217 206 198 205 200 188 182 165 167 166 161 160 161 162 142 132 134 149 166 178 183 168 159 126 113 120 131 140 138
234 235 236 234 233 238 250 261 258 260 258 262 255 254 240 212 205 194 195 195 183 176 167 166 162 157 161 159 153 142 136 143 150 162 157 166 145 112 98 93 138 164 156 134
244 238 236 237 240 242 254 261 256 255 255 252 251 256 243 222 205 190 181 184 171 170 163 159 152 149 151 148 141 136 140 147 146 150 147 160 121 95 85 99 122 161 138 131
236 235 233 235 236 232 237 245 249 244 240 247 244 243 238 198 168 178 175 168 164 163 159 151 142 143 142 138 137 141 150 151 147 146 143 135 128 145 131 90 93 66 90 117
232 229 224 224 231 233 228 235 240 250 257 263 256 245 223 185 141 147 149 146 142 149 152 149 142 138 143 148 142 142 146 147 150 150 145 128 134 164 125 84 7 52 39 79
242 235 228 225 226 230 230 236 243 254 269 270 255 252 178 151 136 135 145 154 155 155 148 137 129 132 143 140 140 143 144 146 152 152 152 143 146 130 99 113 101 51 27 59
257 258 239 225 227 233 241 246 254 251 266 270 265 240 221 180 169 156 163 164 155 153 142 140 133 135 133 135 130 134 143 151 154 150 161 158 146 135 132 134 107 76 50 55
244 256 248 232 225 231 233 238 244 255 258 267 271 268 219 167 175 187 182 166 164 158 145 136 138 137 132 132 137 141 148 152 151 152 150 140 144 150 156 150 120 98 69 57
236 249 255 247 242 238 243 243 242 248 254 263 268 265 150 146 180 180 171 157 149 148 143 134 131 138 136 133 130 138 151 155 156 159 157 156 156 154 154 146 132 105 67 50
247 245 251 249 240 239 249 250 250 247 254 260 263 251 153 133 150 149 132 127 128 133 133 134 132 136 147 145 146 155 161 156 160 166 160 157 160 163 162 167 161 165 179 220
235 243 245 248 251 247 252 252 251 252 253 259 262 245 201 155 128 121 144 145 141 139 139 137 132 135 144 140 146 152 155 149 150 153 156 165 176 180 178 175 173 166 188 210
235 246 251 255 258 254 255 259 255 255 259 263 267 253 214 126 129 184 168 149 143 138 136 132 138 141 146 142 145 154 151 134 148 167 168 175 188 183 179 172 170 160 229 213
219 256 259 255 252 256 259 257 251 253 259 262 269 266 212 123 151 202 175 154 152 149 147 144 137 136 146 153 172 174 156 158 180 205 187 175 186 179 178 178 168 159 144 67
225 245 261 258 258 258 251 261 255 253 266 264 266 261 258 111 126 107 176 169 162 158 145 131 120 124 134 154 159 189 185 184 189 206 200 184 183 179 184 185 153 149 151 141
240 243 250 259 257 247 253 265 267 265 275 273 277 287 359 32 45 54 59 114 133 115 100 84 89 100 134 146 145 141 215 213 207 208 194 182 178 176 172 152 144 148 154 214
216 233 242 251 250 250 254 263 260 265 281 300 303 330 358 8 13 58 42 45 59 81 89 103 122 98 124 134 135 149 201 210 218 225 209 184 177 173 170 163 163 177 205 234
203 213 235 246 252 252 242 245 285 265 249 345 350 338 337 332 291 311 34 30 43 64 71 100 121 120 132 131 137 162 211 216 233 240 258 225 191 187 183 173 186 202 210 223
209 213 227 240 249 255 264 306 280 241 253 340 322 327 303 304 322 331 349 43 67 66 70 94 125 137 122 131 146 180 217 238 256 251 241 213 202 191 180 178 196 213 224 233
224 226 230 237 242 241 285 273 283 42 26 349 349 15 29 44 57 31 13 30 55 54 75 125 137 143 147 153 172 197 211 243 252 241 231 228 224 223 197 184 207 219 225 233
233 252 239 226 233 34 16 33 70 73 30 6 14 15 37 52 27 18 28 29 62 55 43 84 155 163 166 167 194 223 220 231 238 233 219 227 230 219 198 204 215 222 224 238
240 263 260 238 194 151 92 36 35 45 27 7 14 17 20 22 35 31 54 71 78 69 30 36 288 267 241 211 219 238 236 220 220 213 211 227 228 208 200 216 225 227 230 239
300 284 268 262 258 230 179 94 30 12 11 12 13 11 6 0 38 48 56 68 63 57 10 292 265 269 260 239 224 237 238 210 215 218 220 231 232 216 215 215 258 239 234 256
266 273 261 260 278 279 274 351 351 348 334 337 350 354 345 338 20 48 60 51 35 30 351 289 267 261 257 243 244 257 236 213 219 221 224 233 228 210 215 208 207 29 195 193
Height
1480 1481 1479 1475 1470 1470 1470 1473 1476 1470 1461 1465 1469 1471 1471 1471 1474 1476 1479 1483 1486 1490 1494 1497 1501 1503 1506 1507 1509 1510 1511 1512 1514 1515 1516 1517 1518 1519 1519 1519 1518 1518 1518 1517
1477 1477 1469 1465 1464 1466 1468 1473 1473 1467 1461 1464 1468 1469 1466 1468 1470 1473 1476 1480 1483 1487 1491 1495 1498 1502 1503 1505 1507 1508 1510 1511 1512 1513 1514 1516 1517 1517 1518 1518 1517 1517 1517 1516
1472 1466 1463 1464 1465 1470 1470 1470 1470 1468 1463 1461 1468 1473 1468 1465 1468 1471 1475 1478 1481 1485 1489 1494 1497 1499 1501 1503 1504 1507 1508 1509 1510 1512 1513 1515 1515 1516 1517 1517 1516 1516 1516 1515
1466 1460 1460 1463 1466 1468 1472 1463 1464 1467 1471 1473 1470 1482 1468 1463 1465 1469 1473 1476 1479 1483 1486 1491 1494 1497 1499 1501 1503 1505 1506 1507 1509 1510 1511 1513 1513 1514 1515 1515 1515 1514 1514 1514
1463 1459 1461 1463 1463 1463 1465 1460 1462 1467 1470 1475 1469 1476 1471 1462 1466 1467 1471 1474 1477 1481 1484 1488 1491 1494 1497 1500 1501 1503 1504 1506 1507 1508 1510 1511 1512 1513 1513 1513 1513 1513 1513 1513
1457 1455 1456 1457 1457 1459 1460 1463 1465 1467 1470 1484 1473 1476 1475 1465 1465 1466 1469 1472 1476 1480 1484 1487 1490 1492 1495 1498 1500 1502 1503 1505 1506 1507 1509 1510 1511 1511 1512 1512 1512 1512 1512 1512
1460 1455 1453 1455 1459 1460 1463 1475 1488 1488 1486 1481 1464 1470 1472 1461 1458 1462 1467 1470 1475 1479 1483 1486 1488 1491 1494 1496 1498 1500 1502 1503 1505 1506 1507 1508 1509 1510 1511 1511 1511 1511 1511 1511
1465 1463 1452 1452 1457 1462 1464 1470 1488 1497 1491 1478 1465 1470 1462 1455 1457 1462 1466 1470 1475 1479 1483 1485 1488 1490 1493 1495 1496 1498 1500 1501 1503 1505 1506 1507 1508 1509 1509 1510 1510 1510 1510 1510
1460 1459 1447 1448 1450 1455 1464 1466 1463 1473 1476 1481 1474 1467 1461 1456 1459 1463 1467 1471 1475 1478 1482 1484 1487 1490 1492 1493 1495 1497 1499 1500 1502 1504 1505 1506 1507 1508 1508 1509 1509 1509 1509 1509
1453 1460 1449 1446 1450 1451 1453 1457 1464 1473 1487 1489 1477 1471 1470 1465 1465 1465 1467 1471 1475 1479 1481 1484 1486 1489 1491 1493 1495 1497 1498 1499 1501 1503 1504 1505 1506 1506 1507 1508 1508 1508 1508 1509
1452 1461 1456 1451 1454 1456 1457 1459 1462 1466 1470 1484 1487 1478 1458 1461 1463 1465 1467 1470 1474 1478 1480 1484 1486 1489 1490 1493 1495 1496 1498 1499 1500 1501 1502 1503 1504 1505 1506 1507 1507 1507 1507 1508
1450 1456 1461 1454 1446 1446 1450 1454 1459 1473 1476 1471 1476 1477 1455 1457 1460 1463 1466 1469 1473 1477 1480 1483 1486 1489 1491 1493 1494 1496 1497 1498 1499 1500 1501 1502 1503 1503 1504 1505 1506 1506 1506 1507
1452 1459 1470 1467 1460 1453 1454 1451 1452 1457 1465 1471 1476 1476 1458 1459 1461 1463 1466 1469 1473 1476 1480 1482 1485 1488 1491 1492 1494 1495 1496 1497 1498 1499 1500 1500 1501 1502 1503 1504 1504 1505 1505 1506
1454 1459 1468 1475 1467 1461 1459 1454 1452 1457 1466 1469 1467 1467 1461 1461 1463 1464 1468 1470 1473 1477 1480 1481 1484 1487 1490 1492 1493 1494 1495 1496 1497 1497 1498 1498 1499 1500 1501 1502 1503 1504 1504 1504
1455 1460 1460 1459 1455 1455 1456 1454 1452 1456 1457 1463 1462 1462 1462 1462 1464 1467 1468 1471 1473 1477 1480 1482 1484 1487 1489 1491 1492 1493 1494 1494 1495 1496 1496 1497 1498 1499 1500 1501 1501 1502 1502 1503
1456 1461 1460 1460 1454 1453 1453 1450 1450 1453 1453 1456 1457 1461 1458 1460 1465 1468 1469 1471 1474 1477 1480 1482 1484 1486 1488 1489 1491 1492 1492 1493 1493 1494 1495 1495 1496 1497 1498 1499 1500 1500 1500 1501
1456 1462 1466 1463 1455 1454 1459 1452 1450 1452 1451 1454 1459 1460 1458 1461 1465 1468 1469 1471 1474 1477 1479 1481 1483 1484 1486 1488 1489 1490 1491 1491 1492 1492 1493 1494 1494 1495 1496 1497 1498 1498 1498 1499
1458 1462 1465 1464 1464 1472 1456 1447 1448 1451 1452 1453 1455 1457 1459 1463 1466 1468 1470 1472 1474 1476 1478 1480 1482 1483 1485 1486 1487 1488 1489 1490 1490 1491 1491 1492 1493 1494 1494 1495 1495 1496 1497 1497
1455 1461 1465 1466 1467 1462 1455 1450 1450 1454 1457 1455 1456 1458 1461 1464 1466 1469 1471 1473 1475 1476 1478 1479 1480 1481 1482 1484 1485 1486 1487 1488 1489 1489 1489 1489 1490 1491 1492 1493 1493 1494 1495 1495
1451 1456 1463 1464 1470 1469 1458 1450 1450 1454 1461 1458 1459 1461 1464 1466 1469 1471 1472 1473 1475 1476 1477 1478 1479 1480 1480 1482 1483 1484 1485 1486 1486 1487 1488 1488 1488 1489 1490 1491 1491 1492 1493 1493
1454 1456 1460 1463 1466 1459 1453 1451 1452 1464 1466 1461 1461 1463 1464 1466 1470 1471 1471 1472 1473 1474 1475 1476 1477 1478 1479 1480 1481 1482 1483 1483 1484 1485 1486 1486 1486 1487 1488 1488 1489 1490 1491 1491
1453 1456 1458 1460 1465 1465 1453 1453 1457 1462 1462 1462 1462 1463 1465 1467 1468 1469 1470 1470 1472 1473 1473 1474 1475 1476 1477 1478 1479 1480 1480 1481 1482 1483 1484 1484 1484 1485 1486 1486 1487 1488 1488 1489
1449 1451 1452 1457 1460 1456 1456 1457 1459 1461 1462 1463 1464 1464 1465 1467 1468 1468 1469 1469 1471 1472 1472 1473 1474 1475 1476 1477 1477 1478 1479 1480 1480 1481 1481 1482 1482 1483 1483 1484 1485 1486 1486 1487
1449 1450 1450 1453 1455 1456 1458 1459 1461 1462 1463 1464 1464 1465 1465 1466 1467 1467 1467 1468 1470 1471 1471 1472 1473 1474 1474 1475 1476 1476 1477 1477 1478 1479 1479 1480 1481 1481 1482 1482 1483 1484 1484 1484
1451 1451 1452 1455 1456 1456 1457 1460 1461 1462 1463 1464 1464 1465 1466 1466 1466 1467 1468 1469 1469 1470 1471 1472 1472 1472 1473 1473 1474 1474 1475 1475 1476 1477 1477 1478 1479 1479 1480 1480 1481 1481 1481 1482
1453 1454 1455 1456 1456 1457 1458 1460 1462 1463 1463 1464 1464 1465 1466 1466 1466 1467 1468 1469 1469 1470 1470 1471 1471 1471 1471 1471 1472 1472 1472 1473 1473 1474 1475 1476 1477 1477 1478 1478 1479 1479 1479 1479